QPF
0.00 0.00 0.00 0.00 0.00 0.00 0.00 0.00 0.00 0.00 0.00 0.00 0.00 0.00 0.00 0.00 0.00 0.00 0.00 0.00 0.00 0.00 0.00 0.00 0.00 0.00 0.00 0.00 0.00 0.00 0.00 0.00
0.00 0.00 0.00 0.00 0.00 0.00 0.00 0.00 0.00 0.00 0.00 0.00 0.00 0.00 0.00 0.00 0.00 0.00 0.00 0.00 0.00 0.00 0.00 0.00 0.00 0.00 0.00 0.00 0.00 0.00 0.00 0.00
0.00 0.00 0.00 0.00 0.00 0.00 0.00 0.00 0.00 0.00 0.00 0.00 0.00 0.00 0.00 0.00 0.00 0.00 0.00 0.00 0.00 0.00 0.00 0.00 0.00 0.00 0.00 0.00 0.00 0.00 0.00 0.00
0.00 0.00 0.00 0.00 0.00 0.00 0.00 0.00 0.00 0.00 0.00 0.00 0.00 0.00 0.00 0.00 0.00 0.00 0.00 0.00 0.00 0.00 0.00 0.00 0.00 0.00 0.00 0.00 0.00 0.00 0.00 0.00
0.00 0.00 0.00 0.00 0.00 0.00 0.00 0.00 0.00 0.00 0.00 0.00 0.00 0.00 0.00 0.00 0.00 0.00 0.00 0.00 0.00 0.00 0.00 0.00 0.00 0.00 0.00 0.00 0.00 0.00 0.00 0.00
0.00 0.00 0.00 0.00 0.00 0.00 0.00 0.00 0.00 0.00 0.00 0.00 0.00 0.00 0.00 0.00 0.00 0.00 0.00 0.00 0.00 0.00 0.00 0.00 0.00 0.00 0.00 0.00 0.00 0.00 0.00 0.00
0.00 0.00 0.00 0.00 0.00 0.00 0.00 0.00 0.00 0.00 0.00 0.00 0.00 0.00 0.00 0.00 0.00 0.00 0.00 0.00 0.00 0.00 0.00 0.00 0.00 0.00 0.00 0.00 0.00 0.00 0.00 0.00
0.00 0.00 0.00 0.00 0.00 0.00 0.00 0.00 0.00 0.00 0.00 0.00 0.00 0.00 0.00 0.00 0.00 0.00 0.00 0.00 0.00 0.00 0.00 0.00 0.00 0.00 0.00 0.00 0.00 0.00 0.00 0.00
0.00 0.00 0.00 0.00 0.00 0.00 0.00 0.00 0.00 0.00 0.00 0.00 0.00 0.00 0.00 0.00 0.00 0.00 0.00 0.00 0.00 0.00 0.00 0.00 0.00 0.00 0.00 0.00 0.00 0.00 0.00 0.00
0.00 0.00 0.00 0.00 0.00 0.00 0.00 0.00 0.00 0.00 0.00 0.00 0.00 0.00 0.00 0.00 0.00 0.00 0.00 0.00 0.00 0.00 0.00 0.00 0.00 0.00 0.00 0.00 0.00 0.00 0.00 0.00
0.00 0.00 0.00 0.00 0.00 0.00 0.00 0.00 0.00 0.00 0.00 0.00 0.00 0.00 0.00 0.00 0.00 0.00 0.00 0.00 0.00 0.00 0.00 0.00 0.00 0.00 0.00 0.00 0.00 0.00 0.00 0.00
0.00 0.00 0.00 0.00 0.00 0.00 0.00 0.00 0.00 0.00 0.00 0.00 0.00 0.00 0.00 0.00 0.00 0.00 0.00 0.00 0.00 0.00 0.00 0.00 0.00 0.00 0.00 0.00 0.00 0.00 0.00 0.00
0.00 0.00 0.00 0.00 0.00 0.00 0.00 0.00 0.00 0.00 0.00 0.00 0.00 0.00 0.00 0.00 0.00 0.00 0.00 0.00 0.00 0.00 0.00 0.00 0.00 0.00 0.00 0.00 0.00 0.00 0.00 0.00
0.00 0.00 0.00 0.00 0.00 0.00 0.00 0.00 0.00 0.00 0.00 0.00 0.00 0.00 0.00 0.00 0.00 0.00 0.00 0.00 0.00 0.00 0.00 0.00 0.00 0.00 0.01 0.01 0.00 0.00 0.00 0.00
0.00 0.00 0.00 0.00 0.00 0.00 0.00 0.00 0.00 0.00 0.00 0.00 0.00 0.00 0.00 0.00 0.00 0.00 0.00 0.00 0.00 0.00 0.00 0.01 0.01 0.00 0.00 0.02 0.01 0.00 0.00 0.00
0.00 0.00 0.00 0.00 0.00 0.00 0.00 0.00 0.00 0.00 0.00 0.00 0.00 0.00 0.00 0.00 0.00 0.00 0.00 0.00 0.00 0.00 0.00 0.01 0.02 0.02 0.00 0.01 0.02 0.02 0.01 0.01
0.00 0.00 0.00 0.00 0.00 0.00 0.00 0.00 0.00 0.00 0.00 0.00 0.00 0.00 0.00 0.00 0.00 0.00 0.00 0.00 0.00 0.00 0.01 0.01 0.02 0.02 0.01 0.01 0.01 0.00 0.01 0.02
0.00 0.00 0.00 0.00 0.00 0.00 0.00 0.00 0.00 0.00 0.00 0.00 0.00 0.00 0.00 0.00 0.00 0.00 0.00 0.00 0.00 0.00 0.01 0.02 0.02 0.02 0.02 0.02 0.02 0.02 0.01 0.02
0.00 0.00 0.00 0.00 0.00 0.00 0.00 0.00 0.00 0.00 0.00 0.00 0.00 0.00 0.00 0.00 0.00 0.00 0.00 0.00 0.00 0.00 0.01 0.02 0.02 0.03 0.04 0.04 0.03 0.03 0.02 0.02
0.00 0.00 0.00 0.00 0.00 0.00 0.00 0.00 0.00 0.00 0.00 0.00 0.00 0.00 0.00 0.00 0.00 0.00 0.00 0.00 0.00 0.00 0.01 0.02 0.03 0.05 0.05 0.07 0.06 0.03 0.03 0.02
MSLP
1022.32 1022.50 1022.91 1023.01 1022.92 1022.96 1022.95 1022.84 1022.72 1022.77 1022.80 1022.86 1022.87 1022.71 1022.46 1022.13 1021.85 1021.36 1021.19 1020.97 1020.56 1020.31 1020.02 1019.75 1019.36 1019.01 1018.70 1018.46 1018.31 1018.03 1017.30 1016.22
1022.47 1022.61 1022.60 1022.52 1022.45 1023.31 1023.22 1023.00 1023.14 1023.18 1023.09 1023.09 1022.98 1022.44 1022.10 1021.63 1021.42 1021.34 1021.28 1021.04 1020.60 1020.34 1020.04 1019.75 1019.43 1019.03 1018.76 1018.62 1018.22 1017.77 1016.54 1015.98
1022.55 1022.62 1022.76 1022.70 1022.61 1022.91 1023.00 1023.16 1023.31 1023.16 1022.93 1023.09 1022.44 1021.85 1021.74 1021.50 1021.46 1021.52 1021.33 1021.01 1020.56 1020.31 1020.01 1019.67 1019.23 1018.39 1018.02 1018.08 1017.99 1016.53 1016.26 1015.88
1022.24 1022.67 1022.79 1022.70 1022.50 1022.75 1022.75 1022.85 1022.83 1023.01 1022.99 1022.89 1022.31 1022.17 1021.73 1021.72 1021.10 1021.10 1020.87 1020.53 1020.11 1019.75 1019.48 1019.22 1018.43 1017.78 1017.25 1017.14 1016.56 1016.56 1016.47 1015.70
1022.09 1022.84 1022.97 1022.73 1022.73 1022.51 1022.34 1022.45 1022.65 1022.67 1023.01 1023.09 1022.48 1022.06 1021.54 1021.08 1020.68 1020.37 1020.23 1019.94 1019.39 1019.21 1018.67 1018.39 1018.66 1018.40 1017.81 1017.47 1017.03 1016.71 1015.89 1015.36
1022.13 1022.61 1023.04 1023.20 1022.71 1022.61 1022.50 1022.40 1022.67 1022.62 1022.90 1023.09 1022.64 1021.91 1021.51 1021.17 1020.70 1020.54 1020.17 1019.80 1019.58 1019.16 1018.91 1019.26 1019.06 1018.43 1017.95 1017.43 1017.14 1016.80 1015.97 1015.25
1022.07 1022.61 1022.97 1023.18 1023.11 1022.93 1022.92 1022.78 1022.80 1023.16 1022.85 1022.93 1023.00 1022.33 1021.73 1021.28 1020.90 1020.57 1020.26 1019.88 1019.54 1019.55 1019.66 1019.25 1018.70 1018.26 1017.76 1016.96 1016.29 1015.89 1015.53 1015.07
1022.22 1022.62 1023.08 1023.17 1023.21 1023.41 1023.17 1023.07 1023.08 1022.92 1022.83 1023.11 1023.15 1022.71 1022.08 1021.47 1020.95 1020.55 1020.17 1019.96 1020.15 1020.47 1019.79 1019.22 1018.53 1017.85 1016.86 1016.01 1015.67 1015.38 1014.93 1014.64
1022.15 1022.75 1023.18 1023.28 1023.33 1023.28 1023.20 1023.12 1023.16 1022.89 1022.83 1022.94 1023.05 1022.77 1022.30 1021.79 1020.98 1020.51 1020.22 1020.52 1021.00 1020.37 1019.82 1019.06 1018.20 1017.30 1016.64 1016.37 1015.33 1014.54 1014.11 1013.91
1022.06 1022.49 1023.05 1023.33 1023.44 1023.37 1023.21 1023.17 1023.10 1022.96 1022.81 1022.75 1022.95 1022.77 1022.43 1021.79 1020.94 1020.54 1020.46 1021.29 1020.78 1020.02 1019.55 1018.94 1018.21 1017.52 1016.72 1015.93 1015.09 1014.14 1013.56 1013.31
1022.04 1022.72 1023.04 1023.32 1023.55 1023.40 1023.40 1023.56 1023.14 1022.97 1022.85 1022.76 1022.97 1022.60 1022.37 1021.82 1020.93 1020.53 1020.84 1020.86 1019.92 1019.62 1019.18 1018.83 1018.06 1017.34 1016.72 1015.66 1014.52 1013.88 1013.06 1012.47
1022.09 1022.68 1023.22 1023.41 1023.04 1022.96 1022.88 1022.76 1022.79 1022.81 1022.77 1022.87 1022.86 1022.43 1022.19 1021.55 1020.73 1020.48 1020.42 1020.08 1019.64 1019.43 1019.11 1018.58 1018.04 1017.30 1016.56 1015.79 1014.60 1013.20 1012.51 1011.94
1022.12 1022.70 1023.21 1023.04 1022.68 1022.65 1022.48 1022.36 1022.44 1022.43 1022.59 1022.75 1022.61 1022.32 1021.93 1021.38 1020.68 1020.15 1019.92 1019.87 1019.66 1019.41 1018.98 1018.53 1017.75 1017.15 1016.45 1015.49 1013.82 1012.26 1011.58 1011.19
1022.13 1022.64 1023.08 1023.07 1022.91 1023.11 1023.18 1022.88 1022.57 1022.71 1022.39 1022.31 1022.18 1022.12 1021.80 1021.33 1020.77 1020.06 1019.77 1019.64 1019.35 1019.04 1018.97 1018.42 1017.68 1017.01 1016.61 1015.71 1013.28 1011.12 1010.64 1011.09
1022.05 1022.62 1023.08 1023.41 1023.55 1023.09 1022.96 1022.53 1022.15 1021.99 1022.00 1021.75 1021.71 1021.73 1021.42 1021.03 1020.58 1019.95 1019.50 1019.22 1018.83 1018.73 1018.56 1018.23 1017.52 1016.73 1016.39 1016.22 1014.76 1012.21 1011.35 1010.60
1022.13 1022.80 1023.15 1023.51 1023.77 1023.30 1023.26 1022.79 1022.45 1022.35 1021.99 1021.67 1021.34 1021.14 1020.85 1020.54 1020.24 1019.62 1019.06 1018.63 1018.41 1018.19 1018.00 1017.81 1017.32 1016.27 1015.66 1015.59 1015.44 1014.63 1013.22 1011.63
1022.37 1022.95 1023.31 1023.67 1023.82 1023.76 1023.41 1023.22 1022.92 1022.43 1022.04 1021.59 1021.09 1020.67 1020.42 1020.17 1019.90 1019.27 1018.45 1017.96 1017.83 1017.66 1017.55 1017.03 1016.50 1015.86 1015.17 1014.98 1014.60 1014.20 1013.68 1012.87
1022.56 1022.93 1023.36 1023.77 1023.86 1023.91 1023.91 1023.67 1023.24 1022.61 1022.22 1021.51 1021.04 1020.55 1020.07 1019.79 1019.56 1018.88 1018.23 1017.60 1017.63 1017.42 1016.90 1016.25 1015.56 1015.03 1014.61 1014.28 1013.89 1013.39 1012.69 1012.23
1022.61 1022.87 1023.32 1023.81 1023.94 1024.05 1024.04 1023.77 1023.26 1022.74 1022.40 1021.84 1021.30 1020.65 1020.13 1019.64 1019.44 1018.78 1017.98 1017.62 1017.36 1016.97 1016.15 1015.46 1014.89 1014.32 1013.95 1013.41 1012.94 1012.60 1012.37 1012.05
1022.72 1023.04 1023.46 1023.85 1024.07 1024.19 1024.05 1023.81 1023.32 1022.95 1022.68 1022.22 1021.57 1021.00 1020.30 1019.95 1019.40 1018.64 1017.73 1017.20 1016.93 1016.25 1015.45 1014.78 1014.26 1013.63 1013.10 1012.67 1012.22 1011.74 1011.41 1011.21
Thickness
5585 5579 5573 5569 5566 5563 5561 5559 5557 5555 5552 5550 5548 5548 5548 5548 5549 5552 5552 5552 5555 5556 5557 5558 5562 5565 5567 5570 5573 5576 5582 5592
5577 5571 5568 5565 5563 5554 5552 5551 5548 5545 5543 5541 5540 5541 5541 5543 5543 5544 5543 5543 5546 5547 5548 5550 5551 5555 5559 5561 5565 5570 5580 5586
5571 5566 5561 5558 5555 5550 5547 5543 5539 5537 5536 5533 5535 5536 5534 5534 5533 5533 5532 5533 5536 5537 5538 5541 5543 5549 5553 5554 5557 5568 5572 5577
5566 5559 5554 5552 5550 5545 5541 5537 5533 5529 5527 5525 5526 5525 5526 5524 5526 5525 5525 5526 5527 5529 5531 5532 5537 5541 5546 5548 5554 5556 5559 5568
5561 5551 5546 5545 5541 5539 5537 5533 5528 5525 5519 5515 5516 5516 5517 5518 5519 5519 5517 5518 5519 5519 5521 5523 5521 5524 5528 5532 5537 5540 5548 5555
5554 5545 5539 5534 5534 5532 5529 5526 5520 5517 5511 5506 5505 5507 5507 5507 5508 5506 5506 5506 5505 5506 5505 5502 5502 5506 5509 5514 5518 5522 5530 5539
5547 5539 5532 5528 5525 5522 5519 5516 5511 5505 5502 5497 5493 5494 5495 5495 5494 5493 5492 5492 5491 5488 5485 5485 5488 5490 5492 5497 5502 5507 5513 5520
5540 5533 5526 5522 5518 5513 5510 5506 5501 5497 5493 5486 5482 5481 5482 5482 5482 5481 5478 5476 5471 5466 5467 5468 5470 5473 5479 5484 5487 5490 5496 5502
5535 5527 5520 5516 5512 5507 5503 5498 5492 5488 5483 5478 5473 5470 5469 5468 5468 5466 5463 5456 5449 5449 5449 5451 5454 5458 5461 5461 5469 5475 5480 5485
5532 5524 5516 5510 5504 5499 5495 5490 5484 5479 5474 5469 5462 5459 5456 5454 5454 5451 5446 5436 5434 5434 5432 5433 5435 5436 5439 5441 5447 5453 5458 5463
5527 5517 5511 5503 5497 5492 5487 5479 5476 5470 5464 5458 5451 5448 5443 5441 5440 5437 5429 5423 5423 5419 5416 5413 5414 5415 5415 5419 5426 5430 5437 5443
5521 5512 5503 5496 5493 5488 5483 5477 5469 5461 5455 5447 5441 5437 5433 5431 5429 5423 5416 5411 5406 5400 5395 5392 5391 5393 5394 5395 5402 5411 5416 5421
5516 5507 5497 5493 5490 5483 5479 5472 5463 5456 5447 5440 5433 5428 5423 5419 5415 5411 5404 5395 5387 5380 5376 5372 5371 5373 5376 5380 5389 5400 5406 5412
5511 5502 5492 5487 5483 5474 5465 5459 5454 5445 5440 5433 5426 5418 5413 5407 5401 5396 5388 5379 5372 5366 5359 5355 5354 5356 5355 5359 5380 5396 5399 5396
5507 5497 5488 5479 5471 5467 5460 5455 5450 5443 5434 5427 5419 5411 5403 5396 5388 5382 5376 5368 5360 5350 5343 5339 5340 5341 5341 5339 5349 5371 5374 5382
5503 5491 5482 5473 5463 5459 5451 5447 5441 5434 5427 5420 5412 5404 5395 5386 5378 5372 5364 5356 5347 5340 5334 5329 5328 5330 5330 5327 5324 5327 5333 5352
5496 5485 5476 5466 5457 5449 5444 5437 5431 5426 5419 5412 5404 5396 5387 5378 5368 5361 5354 5346 5339 5333 5326 5323 5321 5319 5318 5314 5315 5317 5319 5325
5491 5482 5471 5460 5451 5443 5435 5428 5423 5418 5411 5404 5397 5389 5380 5369 5358 5350 5344 5340 5332 5325 5321 5318 5316 5314 5311 5307 5307 5310 5316 5320
5487 5478 5467 5455 5447 5438 5430 5423 5418 5412 5403 5396 5388 5381 5370 5360 5348 5343 5339 5333 5326 5320 5318 5315 5311 5308 5304 5303 5302 5302 5303 5308
5483 5473 5462 5452 5443 5434 5426 5419 5413 5404 5394 5386 5378 5369 5360 5350 5343 5339 5336 5331 5323 5320 5316 5312 5308 5306 5301 5298 5296 5297 5297 5300